| time (UTC) | temp C | wind direction | speed KPH | gust KPH | rain 1hr cm | rain 24hr cm | rain mn cm | humidity % | barometer mb |
| 20260506103002 | 13 | 123 | 0.0 | 6.4 | 0.00 | 0.00 | 0.00 | 81 | 1024.6 |
| 20260506101504 | 14 | 123 | 0.0 | 0.0 | 0.00 | 0.00 | 0.00 | 81 | 1024.5 |
| 20260506100001 | 14 | 123 | 0.0 | 0.0 | 0.00 | 0.00 | 0.00 | 80 | 1024.5 |
| 20260506094623 | 14 | 123 | 0.0 | 0.0 | 0.00 | 0.00 | 0.00 | 80 | 1024.5 |
| 20260506093059 | 14 | 123 | 0.0 | 0.0 | 0.00 | 0.00 | 0.00 | 80 | 1024.5 |
| 20260506091558 | 14 | 123 | 0.0 | 1.6 | 0.00 | 0.00 | 0.00 | 80 | 1024.5 |
| 20260506090057 | 14 | 123 | 0.0 | 3.2 | 0.00 | 0.00 | 0.00 | 80 | 1024.5 |
| 20260506084557 | 14 | 123 | 0.0 | 4.8 | 0.00 | 0.00 | 0.00 | 79 | 1024.5 |
| 20260506083100 | 14 | 123 | 0.0 | 0.0 | 0.00 | 0.00 | 0.00 | 79 | 1024.5 |
| 20260506081557 | 14 | 123 | 0.0 | 0.0 | 0.00 | 0.00 | 0.00 | 78 | 1024.5 |
| 20260506073049 | 15 | 123 | 0.0 | 0.0 | 0.00 | 0.05 | 0.00 | 77 | 1024.2 |
| 20260506071549 | 15 | 123 | 0.0 | 0.0 | 0.00 | 0.05 | 0.00 | 77 | 1024.1 |
| 20260506061545 | 15 | 122 | 0.0 | 4.8 | 0.00 | 0.25 | 0.05 | 77 | 1023.6 |
| 20260506044533 | 15 | 120 | 1.6 | 6.4 | 0.00 | 0.84 | 0.05 | 78 | 1022.7 |
| 20260506043030 | 16 | 120 | 0.0 | 4.8 | 0.00 | 0.84 | 0.05 | 77 | 1022.5 |
| 20260506041532 | 16 | 120 | 0.0 | 6.4 | 0.00 | 0.84 | 0.05 | 77 | 1022.3 |
| 20260506040029 | 16 | 120 | 0.0 | 4.8 | 0.00 | 0.84 | 0.05 | 77 | 1022.4 |
| 20260506034529 | 16 | 120 | 1.6 | 12.9 | 0.00 | 1.14 | 0.05 | 76 | 1022.3 |
| 20260506033026 | 16 | 117 | 0.0 | 6.4 | 0.00 | 1.14 | 0.05 | 75 | 1022.1 |
| 20260506031525 | 16 | 117 | 0.0 | 6.4 | 0.00 | 1.14 | 0.05 | 75 | 1021.8 |
| 20260506030030 | 17 | 117 | 0.0 | 9.7 | 0.00 | 1.14 | 0.05 | 74 | 1021.5 |
| 20260506024540 | 17 | 117 | 1.6 | 12.9 | 0.00 | 1.27 | 0.05 | 73 | 1021.4 |
| 20260506023023 | 17 | 115 | 0.0 | 9.7 | 0.00 | 1.27 | 0.05 | 72 | 1021.2 |
| 20260506021523 | 17 | 115 | 0.0 | 6.4 | 0.00 | 1.27 | 0.05 | 72 | 1021.1 |
| 20260506020022 | 18 | 115 | 0.0 | 11.3 | 0.00 | 1.27 | 0.05 | 71 | 1021.1 |
| 20260506014524 | 18 | 114 | 1.6 | 11.3 | 0.00 | 1.35 | 0.05 | 70 | 1020.9 |
| 20260506013021 | 18 | 112 | 3.2 | 11.3 | 0.00 | 1.35 | 0.05 | 69 | 1020.9 |
| 20260506011520 | 18 | 108 | 1.6 | 9.7 | 0.00 | 1.35 | 0.05 | 68 | 1020.8 |
| 20260506010021 | 18 | 108 | 3.2 | 11.3 | 0.00 | 1.35 | 0.05 | 67 | 1020.7 |
| 20260506004520 | 18 | 108 | 1.6 | 11.3 | 0.00 | 1.42 | 0.05 | 67 | 1020.7 |
| 20260506003019 | 18 | 105 | 0.0 | 9.7 | 0.00 | 1.42 | 0.05 | 66 | 1020.6 |
| 20260506001519 | 19 | 105 | 0.0 | 6.4 | 0.00 | 1.42 | 0.05 | 64 | 1020.6 |
| 20260506000018 | 19 | 105 | 1.6 | 4.8 | 0.00 | 1.42 | 0.05 | 63 | 1020.6 |
| 20260505234527 | 20 | 105 | 0.0 | 4.8 | 0.00 | 1.52 | 0.05 | 61 | 1020.5 |
| 20260505233017 | 19 | 105 | 0.0 | 6.4 | 0.00 | 1.52 | 0.05 | 64 | 1020.5 |
| 20260505231514 | 18 | 105 | 0.0 | 4.8 | 0.00 | 1.52 | 0.05 | 64 | 1020.6 |
| 20260505230030 | 18 | 105 | 0.0 | 6.4 | 0.00 | 1.52 | 0.05 | 64 | 1020.6 |
| 20260505224513 | 18 | 105 | 0.0 | 4.8 | 0.00 | 1.52 | 0.05 | 63 | 1020.8 |
| 20260505223011 | 18 | 105 | 0.0 | 4.8 | 0.00 | 1.52 | 0.05 | 63 | 1020.9 |
| 20260505221510 | 18 | 105 | 0.0 | 3.2 | 0.00 | 1.52 | 0.05 | 64 | 1021.1 |
| 20260505220010 | 18 | 105 | 0.0 | 4.8 | 0.00 | 1.52 | 0.05 | 65 | 1021.1 |
| 20260505214508 | 18 | 105 | 1.6 | 6.4 | 0.00 | 1.52 | 0.05 | 63 | 1021.2 |
| 20260505213011 | 18 | 105 | 1.6 | 3.2 | 0.00 | 1.52 | 0.05 | 64 | 1021.2 |
| 20260505211513 | 18 | 105 | 1.6 | 6.4 | 0.00 | 1.52 | 0.05 | 66 | 1021.2 |
| 20260505210013 | 18 | 105 | 3.2 | 9.7 | 0.00 | 1.52 | 0.05 | 64 | 1021.3 |
| 20260505204506 | 18 | 105 | 0.0 | 4.8 | 0.00 | 1.52 | 0.05 | 64 | 1021.4 |
| 20260505203003 | 18 | 105 | 0.0 | 4.8 | 0.00 | 1.52 | 0.05 | 67 | 1021.4 |
| 20260505201605 | 17 | 105 | 0.0 | 3.2 | 0.00 | 1.52 | 0.05 | 69 | 1021.4 |
| 20260505200059 | 17 | 105 | 0.0 | 9.7 | 0.00 | 1.52 | 0.05 | 68 | 1021.6 |
| 20260505194557 | 17 | 105 | 0.0 | 6.4 | 0.00 | 1.52 | 0.05 | 70 | 1021.6 |
| 20260505193055 | 16 | 105 | 3.2 | 9.7 | 0.00 | 1.52 | 0.05 | 68 | 1021.6 |
| 20260505191610 | 17 | 105 | 1.6 | 9.7 | 0.00 | 1.52 | 0.05 | 71 | 1021.7 |
| 20260505190052 | 16 | 105 | 1.6 | 6.4 | 0.00 | 1.52 | 0.05 | 77 | 1021.7 |
| 20260505184544 | 15 | 105 | 0.0 | 9.7 | 0.00 | 1.52 | 0.05 | 80 | 1021.6 |
| 20260505183041 | 14 | 105 | 0.0 | 1.6 | 0.00 | 1.52 | 0.05 | 83 | 1021.5 |
| 20260505181539 | 14 | 105 | 0.0 | 4.8 | 0.00 | 1.52 | 0.05 | 85 | 1021.6 |
| 20260505180046 | 14 | 105 | 0.0 | 0.0 | 0.00 | 1.52 | 0.05 | 87 | 1021.5 |
| 20260505174541 | 13 | 105 | 0.0 | 6.4 | 0.00 | 1.52 | 0.05 | 86 | 1021.4 |
| 20260505173032 | 13 | 105 | 0.0 | 0.0 | 0.00 | 1.52 | 0.05 | 89 | 1021.4 |
| 20260505171532 | 13 | 105 | 0.0 | 4.8 | 0.00 | 1.52 | 0.05 | 91 | 1021.4 |
| 20260505170027 | 13 | 105 | 0.0 | 4.8 | 0.00 | 1.52 | 0.05 | 92 | 1021.4 |
| 20260505164526 | 12 | 105 | 0.0 | 4.8 | 0.00 | 1.52 | 0.05 | 94 | 1021.3 |
| 20260505163021 | 12 | 105 | 0.0 | 4.8 | 0.00 | 1.52 | 0.05 | 95 | 1021.2 |
| 20260505161518 | 12 | 105 | 0.0 | 3.2 | 0.00 | 1.52 | 0.05 | 96 | 1021.1 |
| 20260505153012 | 11 | 105 | 0.0 | 6.4 | 0.00 | 1.52 | 0.05 | 96 | 1021.1 |
| 20260505151510 | 11 | 105 | 0.0 | 3.2 | 0.00 | 1.52 | 0.05 | 96 | 1020.9 |
| 20260505124559 | 11 | 105 | 0.0 | 4.8 | 0.00 | 1.52 | 0.05 | 96 | 1019.9 |
| 20260505123100 | 11 | 105 | 0.0 | 6.4 | 0.00 | 1.52 | 0.05 | 96 | 1019.9 |
| 20260505121557 | 11 | 105 | 0.0 | 0.0 | 0.00 | 1.52 | 0.05 | 96 | 1019.9 |
| 20260505120058 | 11 | 105 | 0.0 | 0.0 | 0.00 | 1.52 | 0.05 | 96 | 1019.9 |
| 20260505114600 | 11 | 105 | 0.0 | 0.0 | 0.00 | 1.52 | 0.05 | 96 | 1020.0 |
| 20260505113056 | 11 | 105 | 0.0 | 3.2 | 0.00 | 1.52 | 0.05 | 96 | 1020.1 |
| 20260505111555 | 11 | 105 | 0.0 | 3.2 | 0.00 | 1.52 | 0.05 | 96 | 1020.2 |